Location: Cherry Springs State Park
(41.6616°N, 77.8240°W)
Time: 08:05:46
(UTC-04:00)

Amateur Radio Satellites - All Passes

Search period start: 21 August 2014 07:35
Search period end: 22 August 2014 07:35
Location: Cherry Springs State Park, 41.6616°N, 77.8240°W

Satellite Date Start Highest point End Downlink Frequencies (MHz)
Time Altitude Azimuth
UOSAT-12 21 Aug 07:44:24 07:47:47 21° 111° (ESE) 07:51:14 437.025 FM, 437.400 FM
STRAND 1 21 Aug 07:48:30 07:53:15 39° 262° (W) 07:58:02 ?
KITSAT 1 21 Aug 07:57:49 08:01:39 14° 18° (NNE) 08:05:29 435.175 FM
RS-15 21 Aug 08:05:12 08:12:04 19° 99° (E) 08:18:49 29.354 - 29.394 USB, Beacon 29.352 USB
SO-50 21 Aug 08:05:39 08:09:26 26° 315° (NW) 08:13:19 436.795 FM
AO-7 21 Aug 08:08:33 08:13:38 18° 312° (NW) 08:18:43 29.400 - 29.500 MHz
Hamsat 21 Aug 08:15:46 08:19:06 22° 293° (WNW) 08:22:24 145.90 MHz
SO-67 21 Aug 08:32:50 08:36:18 70° 284° (WNW) 08:39:44 435.3500 MHz FM
JAS-2 21 Aug 08:43:54 08:47:46 22° 296° (WNW) 08:51:40 435.800 - 435.900 CW/SSB, 435.910 FM
UOSAT-12 21 Aug 09:23:08 09:27:36 48° 308° (NW) 09:32:10 437.025 FM, 437.400 FM
Saudisat 1A 21 Aug 09:41:27 09:45:20 29° 47° (NE) 09:49:11 436.775 MHz
HO-68 21 Aug 09:49:47 09:56:36 45° 99° (E) 10:03:22 435.675 MHz FM
KITSAT 1 21 Aug 09:52:30 09:59:53 37° 45° (NE) 10:07:12 435.175 FM
RS-15 21 Aug 10:11:31 10:22:38 82° 120° (ESE) 10:33:34 29.354 - 29.394 USB, Beacon 29.352 USB
UKube-1 21 Aug 10:49:36 10:53:57 84° 285° (WNW) 10:58:17 145.840 MHz, 145.915 MHz
FUNcube-1 21 Aug 11:03:42 11:07:43 33° 97° (E) 11:11:47 145.950 - 145.970 MHz USB
Oscar 11 21 Aug 11:06:52 11:11:16 87° 284° (WNW) 11:15:38 145.825 FM, Beacon 2401.500 USB
Saudisat 1A 21 Aug 11:20:58 11:24:55 33° 245° (WSW) 11:28:51 436.775 MHz
HO-68 21 Aug 11:37:45 11:44:08 37° 297° (WNW) 11:50:31 435.675 MHz FM
KITSAT 1 21 Aug 11:47:46 11:55:39 59° 246° (WSW) 12:03:28 435.175 FM
JAS-1B 21 Aug 12:21:01 12:25:43 15° 48° (NE) 12:30:15 435.800 - 435.900 CW/SSB
RS-15 21 Aug 12:26:30 12:36:14 35° 325° (NW) 12:46:00 29.354 - 29.394 USB, Beacon 29.352 USB
Oscar 16 21 Aug 12:33:16 12:36:25 17° 61° (ENE) 12:39:34 437.025 USB, Beacon 2401.1428
FUNcube-1 21 Aug 12:40:26 12:43:57 24° 292° (WNW) 12:47:30 145.950 - 145.970 MHz USB
Oscar 19 21 Aug 13:37:07 13:42:09 59° 72° (ENE) 13:47:14 437.125 CW, 437.150 USB
Gurwin Techsat 1B 21 Aug 13:44:07 13:47:02 15° 60° (ENE) 13:49:57 435.225 FM
ITAMSAT 1 21 Aug 13:46:27 13:51:03 33° 67° (ENE) 13:55:39 435.822 SSB
AO-Echo 21 Aug 13:47:59 13:52:42 36° 69° (ENE) 13:57:17 ?
Uribyol 2 21 Aug 13:58:46 14:03:40 45° 70° (ENE) 14:08:34 436.500 FM
JAS-1B 21 Aug 14:04:48 14:14:21 57° 68° (ENE) 14:23:25 435.800 - 435.900 CW/SSB
Oscar 16 21 Aug 14:10:06 14:15:12 66° 258° (WSW) 14:20:21 437.025 USB, Beacon 2401.1428
AO-27 21 Aug 14:12:05 14:17:10 58° 72° (ENE) 14:22:16 436.795 MHz FM
ISS 21 Aug 14:39:51 14:43:05 53° 140° (SE) 14:46:20 145.800 FM
TMSAT-1 21 Aug 14:40:17 14:45:00 34° 68° (ENE) 14:49:44 436.925 FM
RS-15 21 Aug 14:45:31 14:53:13 21° 0° (N) 15:00:59 29.354 - 29.394 USB, Beacon 29.352 USB
MaSat-1 21 Aug 14:54:29 14:57:26 17° 100° (E) 15:00:34 437.345 MHz
SO-50 21 Aug 14:55:40 15:00:12 41° 50° (NE) 15:04:47 436.795 FM
Oscar 19 21 Aug 15:18:39 15:21:53 17° 269° (W) 15:25:08 437.125 CW, 437.150 USB
Gurwin Techsat 1B 21 Aug 15:21:02 15:26:20 77° 257° (WSW) 15:31:40 435.225 FM
AO-7 21 Aug 15:21:28 15:28:47 36° 58° (ENE) 15:36:04 29.400 - 29.500 MHz
ITAMSAT 1 21 Aug 15:25:59 15:30:31 30° 264° (W) 15:35:04 435.822 SSB
AO-Echo 21 Aug 15:27:07 15:31:29 27° 265° (W) 15:35:47 ?
Uribyol 2 21 Aug 15:39:24 15:43:20 22° 266° (W) 15:47:18 436.500 FM
AO-27 21 Aug 15:53:42 15:57:03 17° 268° (W) 16:00:25 436.795 MHz FM
JAS-1B 21 Aug 15:55:48 16:04:54 41° 265° (W) 16:13:44 435.800 - 435.900 CW/SSB
Uosat F 21 Aug 16:07:42 16:12:27 45° 70° (ENE) 16:17:14 435.120 FM
UOSAT-12 21 Aug 16:12:54 16:16:42 23° 43° (NE) 16:20:27 437.025 FM, 437.400 FM
ISS 21 Aug 16:17:07 16:19:59 26° 338° (NNW) 16:22:52 145.800 FM
TMSAT-1 21 Aug 16:20:16 16:24:54 31° 264° (W) 16:29:34 436.925 FM
MaSat-1 21 Aug 16:29:15 16:33:56 60° 299° (WNW) 16:39:04 437.345 MHz
SO-50 21 Aug 16:36:38 16:40:35 26° 247° (WSW) 16:44:33 436.795 FM
OPAL 21 Aug 16:52:59 16:57:21 27° 97° (E) 17:01:42 ?
RS-15 21 Aug 17:00:22 17:10:12 35° 35° (NE) 17:20:15 29.354 - 29.394 USB, Beacon 29.352 USB
JAS-2 21 Aug 17:10:55 17:15:56 24° 64° (ENE) 17:20:32 435.800 - 435.900 CW/SSB, 435.910 FM
AO-7 21 Aug 17:13:02 17:21:11 56° 257° (WSW) 17:29:23 29.400 - 29.500 MHz
Hamsat 21 Aug 17:33:11 17:36:44 26° 68° (ENE) 17:40:20 145.90 MHz
Uosat F 21 Aug 17:47:41 17:51:26 21° 266° (W) 17:55:13 435.120 FM
UOSAT-12 21 Aug 17:52:33 17:57:08 52° 242° (WSW) 18:01:39 437.025 FM, 437.400 FM
ISS 21 Aug 17:55:35 17:57:34 15° 358° (N) 17:59:33 145.800 FM
MaSat-1 21 Aug 18:10:48 18:12:13 11° 320° (NW) 18:13:39 437.345 MHz
PANSAT 21 Aug 18:12:49 18:13:53 11° 175° (S) 18:14:56 not established
PCSat 21 Aug 18:17:50 18:20:44 15° 103° (ESE) 18:23:37 145.825 MHz
OPAL 21 Aug 18:31:29 18:36:18 39° 293° (WNW) 18:41:07 ?
JAS-2 21 Aug 18:54:00 19:00:42 59° 259° (W) 19:06:38 435.800 - 435.900 CW/SSB, 435.910 FM
SO-67 21 Aug 19:06:05 19:09:17 35° 73° (ENE) 19:12:30 435.3500 MHz FM
Hamsat 21 Aug 19:08:58 19:12:37 27° 265° (W) 19:16:19 145.90 MHz
RS-15 21 Aug 19:12:46 19:23:52 83° 240° (WSW) 19:35:24 29.354 - 29.394 USB, Beacon 29.352 USB
Sapphire 21 Aug 19:27:36 19:32:52 57° 114° (ESE) 19:38:11 437.095 MHz 1200 baud AX-25 AFSK
ISS 21 Aug 19:32:30 19:35:12 22° 19° (NNE) 19:37:54 145.800 FM
PCSat 21 Aug 19:58:02 20:03:27 76° 300° (WNW) 20:08:54 145.825 MHz
STRAND 1 21 Aug 19:58:24 20:03:30 70° 102° (ESE) 20:08:34 ?
HO-68 21 Aug 20:18:52 20:25:10 35° 62° (ENE) 20:31:29 435.675 MHz FM
SO-67 21 Aug 20:40:56 20:42:30 13° 268° (W) 20:44:03 435.3500 MHz FM
ISS 21 Aug 21:08:54 21:12:15 78° 216° (SW) 21:15:34 145.800 FM
Sapphire 21 Aug 21:12:19 21:16:39 24° 314° (NW) 21:21:02 437.095 MHz 1200 baud AX-25 AFSK
RS-15 21 Aug 21:27:21 21:34:33 20° 260° (W) 21:41:56 29.354 - 29.394 USB, Beacon 29.352 USB
STRAND 1 21 Aug 21:39:10 21:42:06 16° 299° (WNW) 21:45:02 ?
PCSat 21 Aug 21:44:49 21:47:48 15° 321° (NW) 21:50:49 145.825 MHz
UKube-1 21 Aug 21:45:05 21:49:26 87° 76° (ENE) 21:53:49 145.840 MHz, 145.915 MHz
FUNcube-1 21 Aug 22:00:59 22:04:26 26° 68° (ENE) 22:07:56 145.950 - 145.970 MHz USB
Oscar 11 21 Aug 22:01:52 22:06:11 75° 75° (ENE) 22:10:31 145.825 FM, Beacon 2401.500 USB
HO-68 21 Aug 22:05:52 22:12:40 47° 260° (W) 22:19:31 435.675 MHz FM
FUNcube-1 21 Aug 23:37:22 23:40:48 25° 265° (W) 23:44:16 145.950 - 145.970 MHz USB
KITSAT 1 22 Aug 00:23:27 00:28:59 21° 102° (ESE) 00:34:31 435.175 FM
MaSat-1 22 Aug 00:47:14 00:51:47 36° 55° (NE) 00:55:51 437.345 MHz
Saudisat 1A 22 Aug 01:26:59 01:31:19 59° 119° (ESE) 01:35:40 436.775 MHz
Oscar 19 22 Aug 01:49:20 01:53:13 21° 93° (E) 01:57:03 437.125 CW, 437.150 USB
JAS-1B 22 Aug 01:56:43 01:58:01 11° 80° (E) 01:59:18 435.800 - 435.900 CW/SSB
ITAMSAT 1 22 Aug 02:01:38 02:02:50 11° 88° (E) 02:04:02 435.822 SSB
Uribyol 2 22 Aug 02:12:32 02:15:36 16° 91° (E) 02:18:39 436.500 FM
KITSAT 1 22 Aug 02:15:16 02:23:23 84° 301° (WNW) 02:31:32 435.175 FM
Oscar 16 22 Aug 02:21:40 02:26:38 43° 99° (E) 02:31:34 437.025 USB, Beacon 2401.1428
MaSat-1 22 Aug 02:24:49 02:28:39 25° 257° (WSW) 02:32:07 437.345 MHz
AO-27 22 Aug 02:25:47 02:29:35 20° 93° (E) 02:33:21 436.795 MHz FM
Sapphire 22 Aug 02:35:02 02:35:48 10° 33° (NNE) 02:36:33 437.095 MHz 1200 baud AX-25 AFSK
TMSAT-1 22 Aug 02:57:35 02:59:50 13° 89° (E) 03:02:04 436.925 FM
PCSat 22 Aug 03:03:37 03:07:05 17° 41° (NE) 03:10:32 145.825 MHz
Saudisat 1A 22 Aug 03:08:05 03:11:16 19° 318° (NW) 03:14:27 436.775 MHz
Oscar 19 22 Aug 03:27:47 03:32:47 48° 289° (WNW) 03:37:46 437.125 CW, 437.150 USB
AO-Echo 22 Aug 03:33:19 03:38:05 84° 284° (WNW) 03:42:46 ?
Gurwin Techsat 1B 22 Aug 03:37:13 03:42:15 42° 98° (E) 03:47:15 435.225 FM
ITAMSAT 1 22 Aug 03:37:47 03:42:59 87° 285° (WNW) 03:48:10 435.822 SSB
JAS-1B 22 Aug 03:42:47 03:50:22 77° 103° (ESE) 03:56:39 435.800 - 435.900 CW/SSB
Uribyol 2 22 Aug 03:50:22 03:55:30 63° 287° (WNW) 04:00:37 436.500 FM
Oscar 16 22 Aug 04:01:35 04:05:43 24° 295° (WNW) 04:09:50 437.025 USB, Beacon 2401.1428
AO-27 22 Aug 04:04:22 04:09:21 49° 289° (WNW) 04:14:19 436.795 MHz FM
OPAL 22 Aug 04:07:59 04:12:46 48° 68° (ENE) 04:17:39 ?
KITSAT 1 22 Aug 04:13:39 04:20:01 25° 324° (NW) 04:26:24 435.175 FM
Sapphire 22 Aug 04:15:21 04:20:37 48° 55° (NE) 04:25:50 437.095 MHz 1200 baud AX-25 AFSK
Uosat F 22 Aug 04:16:57 04:19:18 13° 90° (E) 04:21:38 435.120 FM
TMSAT-1 22 Aug 04:35:02 04:40:21 79° 285° (WNW) 04:45:38 436.925 FM
PCSat 22 Aug 04:45:49 04:51:17 89° 60° (ENE) 04:56:42 145.825 MHz
AO-7 22 Aug 05:14:11 05:22:13 51° 101° (ESE) 05:30:11 29.400 - 29.500 MHz
SO-50 22 Aug 05:14:31 05:15:37 11° 107° (ESE) 05:16:43 436.795 FM
Gurwin Techsat 1B 22 Aug 05:17:41 05:21:59 26° 295° (WNW) 05:26:16 435.225 FM
ITAMSAT 1 22 Aug 05:19:49 05:21:41 12° 302° (WNW) 05:23:32 435.822 SSB
JAS-1B 22 Aug 05:34:37 05:39:54 21° 306° (NW) 05:44:39 435.800 - 435.900 CW/SSB
STRAND 1 22 Aug 05:38:43 05:41:10 14° 59° (ENE) 05:43:37 ?
OPAL 22 Aug 05:48:14 05:51:54 20° 265° (W) 05:55:38 ?
Uosat F 22 Aug 05:53:35 05:58:35 70° 287° (WNW) 06:03:32 435.120 FM
Sapphire 22 Aug 05:59:24 06:03:43 25° 253° (WSW) 06:08:02 437.095 MHz 1200 baud AX-25 AFSK
JAS-2 22 Aug 06:04:42 06:07:26 14° 91° (E) 06:10:12 435.800 - 435.900 CW/SSB, 435.910 FM
KITSAT 1 22 Aug 06:16:34 06:19:03 11° 354° (N) 06:21:33 435.175 FM
TMSAT-1 22 Aug 06:17:59 06:19:23 11° 303° (WNW) 06:20:46 436.925 FM
PCSat 22 Aug 06:31:55 06:33:52 12° 258° (WSW) 06:35:50 145.825 MHz
SO-50 22 Aug 06:50:59 06:55:27 80° 304° (WNW) 07:00:03 436.795 FM
Hamsat 22 Aug 06:53:45 06:58:02 51° 99° (E) 07:02:16 145.90 MHz
AO-7 22 Aug 07:07:20 07:14:46 38° 300° (WNW) 07:22:10 29.400 - 29.500 MHz
STRAND 1 22 Aug 07:14:33 07:19:40 81° 256° (WSW) 07:24:48 ?
